PBO Station Position Time Series. Reference Frame : NAM14
Format Version,1.1.0
4-character ID,7ODM
Station name,Seven_Oaks_SCIGN
Begin Date, 2001-04-21
End Date, 2019-10-07
Release Date, 2019-10-08
Reference position, 34.1164077855 North Latitude, -117.0931948022 East Longitude, 762.08261 meters elevation,
Date, North (mm), East (mm), Vertical (mm), North Std. Deviation (mm), East Std. Deviation (mm),              Vertical Std. Deviation (mm), Quality,
2001-04-21,0.00, 0.00, 0.00, 2.24, 2.08, 9.19, repro,
2001-04-22,-3.34, 0.89, -11.97, 2.27, 2.01, 9.23, repro,
2001-04-24,2.91, -2.42, 21.35, 4.67, 4.24, 19.03, repro,
2001-04-25,1.93, -4.39, 29.29, 4.71, 4.69, 19.97, repro,
2001-04-26,1.30, 7.60, -9.13, 5.34, 4.70, 20.16, repro,
2001-04-27,-0.26, -1.80, 32.22, 4.36, 3.69, 17.69, repro,
2001-04-28,4.45, -5.42, 40.18, 4.80, 4.65, 20.05, repro,
2001-04-29,5.34, -7.70, 34.30, 4.55, 4.30, 18.23, repro,
2001-04-30,5.45, -4.62, 21.33, 4.96, 4.80, 20.29, repro,
2001-05-01,3.83, -1.57, 13.14, 4.84, 4.19, 18.97, repro,
2001-05-02,9.77, 7.36, 5.92, 5.10, 4.90, 20.69, repro,
2001-05-03,0.08, -0.95, 23.53, 4.37, 3.92, 18.37, repro,
2001-05-04,8.04, -2.85, 19.68, 4.49, 4.13, 18.23, repro,
2001-05-05,4.76, -2.27, 34.48, 4.77, 4.42, 19.74, repro,
2001-05-06,4.34, -3.24, 20.20, 4.89, 4.37, 19.06, repro,
2001-05-07,6.47, -9.11, 27.11, 4.86, 4.29, 19.44, repro,
2001-05-08,4.80, -4.59, 19.63, 5.23, 4.97, 21.02, repro,
2001-05-09,7.00, -10.10, 43.89, 5.35, 4.67, 19.85, repro,
2001-05-10,8.95, -11.86, 23.05, 4.70, 4.11, 18.67, repro,
2001-05-11,4.84, 2.22, -1.87, 5.64, 4.91, 21.32, repro,
2001-05-12,2.69, 0.79, 0.61, 5.96, 6.30, 26.52, repro,
2001-05-13,11.61, -9.85, 21.47, 4.98, 4.26, 18.39, repro,
2001-05-14,0.41, 14.35, -21.53, 5.14, 4.48, 18.30, repro,
2001-05-15,9.91, -8.11, 28.54, 4.61, 4.01, 16.92, repro,
2001-05-16,6.23, 11.97, -11.81, 4.97, 4.23, 18.17, repro,
2001-05-17,6.45, -4.93, 12.33, 5.33, 4.45, 18.72, repro,
2001-05-18,7.10, 10.00, -0.93, 5.03, 4.04, 18.02, repro,
2001-05-19,1.75, 12.03, -14.43, 4.96, 4.20, 18.08, repro,
2001-05-20,0.71, 0.74, 27.13, 5.10, 4.55, 19.59, repro,
2001-05-21,5.19, 0.60, 6.55, 5.24, 4.66, 18.36, repro,
2001-05-22,9.83, -9.06, 29.76, 5.12, 4.47, 18.76, repro,
2001-05-23,-3.89, 5.86, -2.22, 4.91, 3.91, 17.82, repro,
2001-05-24,3.69, -0.88, 6.92, 5.60, 5.76, 24.40, repro,
2001-05-25,-3.82, 1.64, -11.30, 4.86, 4.20, 18.23, repro,
2001-05-26,4.03, -4.85, -7.80, 5.13, 4.61, 18.84, repro,
2001-05-27,2.26, -1.73, -18.64, 5.11, 4.61, 18.40, repro,
2001-05-28,4.56, 12.83, 7.98, 4.83, 4.94, 18.81, repro,
2001-05-29,-0.12, -1.99, -18.60, 5.24, 4.94, 19.81, repro,
2001-05-30,4.64, -11.42, -7.53, 4.71, 4.35, 18.60, repro,
2001-05-31,0.92, 2.18, -42.08, 4.74, 5.23, 21.47, repro,
2001-06-01,6.19, -2.20, -12.54, 4.79, 4.90, 19.77, repro,
2001-06-02,-5.22, -2.43, 2.96, 2.82, 2.47, 11.34, repro,
2001-06-03,-0.05, 1.60, 14.04, 2.24, 1.96, 9.14, repro,
2001-06-04,-1.49, 2.33, 9.45, 2.24, 2.03, 9.10, repro,
2001-06-05,-2.62, -0.75, 12.34, 2.19, 1.99, 9.11, repro,
2001-06-06,-0.89, -0.60, -0.41, 2.20, 1.95, 8.93, repro,
2001-06-07,-2.50, 1.30, -5.45, 2.33, 2.05, 9.31, repro,
2001-06-08,-0.57, 1.60, 21.14, 2.22, 1.91, 9.08, repro,
2001-06-09,-0.55, 1.09, 14.28, 2.16, 1.89, 8.81, repro,
2001-06-10,-0.14, 2.08, 12.89, 2.16, 1.89, 8.90, repro,
2001-06-11,-1.74, 1.00, 25.99, 2.19, 1.94, 9.10, repro,
2001-06-12,-1.63, 0.35, 10.65, 2.26, 1.98, 9.26, repro,
2001-06-13,2.45, -2.67, -13.42, 4.98, 4.16, 19.98, repro,
2001-06-14,-0.79, 1.65, -13.94, 4.95, 4.14, 20.43, repro,
2001-06-15,0.72, 1.32, -18.56, 4.74, 3.91, 19.02, repro,
2001-06-16,2.45, 3.91, -14.44, 4.95, 4.26, 21.29, repro,
2001-06-17,-5.26, 3.31, -15.17, 4.88, 4.00, 19.47, repro,
2001-06-18,-2.68, 2.26, -6.17, 5.00, 3.92, 19.86, repro,
2001-06-19,1.65, 2.54, -21.34, 4.90, 3.88, 19.21, repro,
2001-06-20,-1.10, 8.75, -16.33, 5.17, 4.31, 20.94, repro,
2001-06-21,1.37, 1.30, 4.72, 5.29, 4.28, 20.87, repro,
2001-06-22,-1.80, 5.64, -31.91, 4.94, 3.93, 18.33, repro,
2001-06-23,0.04, 0.52, -32.19, 5.20, 3.82, 18.41, repro,
2001-06-24,0.92, 5.63, -29.49, 4.81, 3.97, 18.79, repro,
2001-06-25,11.57, -0.03, -29.34, 4.97, 3.80, 18.44, repro,
2001-06-26,8.93, 2.94, -27.09, 4.90, 3.69, 17.72, repro,
2001-06-27,5.98, 3.29, -28.72, 5.22, 3.83, 18.82, repro,
2001-06-28,3.57, 2.05, -44.89, 4.80, 3.97, 19.08, repro,
2001-06-29,3.67, 2.98, -37.77, 4.81, 4.00, 18.98, repro,
2001-06-30,6.43, 3.93, -42.76, 5.10, 3.89, 17.97, repro,
2001-07-01,1.09, 4.16, -28.52, 5.12, 4.27, 19.47, repro,
2001-07-02,1.45, 1.88, -13.16, 4.74, 4.03, 18.81, repro,
2001-07-03,2.51, 6.90, -37.12, 4.99, 4.10, 18.19, repro,
2001-07-04,2.43, 9.94, -51.41, 5.00, 4.25, 19.26, repro,
2001-07-05,-0.60, 10.57, -46.70, 4.94, 4.19, 18.19, repro,
2001-07-06,0.53, 5.94, -32.06, 5.04, 4.28, 19.44, repro,
2001-07-07,5.18, 2.52, -28.97, 4.54, 4.12, 17.89, repro,
2001-07-08,-0.68, 8.37, -45.46, 4.44, 4.05, 17.22, repro,
2001-07-09,-0.58, 7.83, -36.47, 4.59, 4.29, 18.31, repro,
2001-07-10,2.36, 5.01, -51.40, 4.60, 4.17, 18.43, repro,
2001-07-11,3.12, 7.64, -45.43, 4.56, 4.15, 18.20, repro,
2001-07-12,10.75, 33.99, -83.14, 5.08, 4.55, 20.55, repro,
2001-07-13,7.42, 9.31, -51.66, 5.02, 4.26, 19.54, repro,
2001-07-14,-0.72, 6.08, -43.39, 4.67, 4.33, 18.00, repro,
2001-07-15,-0.84, 12.55, -42.19, 4.58, 4.09, 17.94, repro,
2001-07-16,-1.33, 5.52, -12.28, 4.37, 4.08, 18.19, repro,
2001-07-17,-0.19, 5.53, -11.21, 4.51, 4.30, 18.82, repro,
2001-07-18,-3.88, 7.67, -45.45, 4.69, 4.36, 18.03, repro,
2001-07-19,-6.07, 8.92, -35.21, 4.32, 4.00, 17.72, repro,
2001-07-20,-5.87, 4.96, -19.61, 4.32, 4.11, 18.16, repro,
2001-07-21,-0.07, 7.13, -32.02, 4.27, 4.09, 18.20, repro,
2001-07-22,-4.00, 6.49, -47.45, 4.35, 4.09, 18.27, repro,
2001-08-21,-6.19, -5.11, 7.51, 4.82, 3.63, 17.29, repro,
2001-08-22,4.84, -5.21, -13.66, 4.69, 4.08, 19.54, repro,
2001-08-23,-3.01, 4.01, -9.89, 3.74, 3.16, 15.73, repro,
2001-08-24,1.00, 1.58, 11.56, 2.28, 1.95, 8.83, repro,
2001-08-25,2.24, 1.59, 17.12, 2.34, 2.00, 9.28, repro,
2001-08-26,0.65, 2.32, 14.85, 2.37, 2.04, 9.28, repro,
2001-08-27,-1.85, 1.83, 10.19, 2.65, 2.47, 11.18, repro,
2001-08-28,-2.09, 2.67, 15.50, 2.42, 2.00, 9.43, repro,
2001-08-29,2.30, -3.13, 32.28, 2.39, 2.01, 9.46, repro,
2001-08-30,1.68, 0.51, 22.05, 2.34, 2.04, 9.30, repro,
2001-08-31,-1.26, 0.66, 34.10, 2.77, 2.30, 10.50, repro,
2001-09-01,-1.06, 4.66, 8.07, 2.38, 2.08, 9.48, repro,
2001-09-02,-1.82, 1.58, 17.61, 2.31, 2.04, 9.17, repro,
2001-09-03,-0.75, 1.44, 22.51, 2.38, 2.08, 9.55, repro,
2001-09-04,-0.94, -0.25, 15.53, 2.37, 2.08, 9.72, repro,
2001-09-05,1.75, 3.57, 16.34, 2.49, 2.32, 10.21, repro,
2001-09-06,-3.57, 0.94, 13.50, 2.21, 1.95, 8.87, repro,
2001-09-07,0.42, -1.19, 9.24, 2.18, 1.95, 8.75, repro,
2001-09-08,-2.17, 2.05, 10.18, 2.20, 1.98, 8.85, repro,
2001-09-09,-2.08, 2.16, 13.64, 2.25, 2.01, 9.00, repro,
2001-09-10,0.35, 0.83, 21.24, 2.15, 1.88, 8.66, repro,
2001-09-11,-1.05, 2.32, 10.30, 2.28, 2.02, 8.93, repro,
2001-09-12,-0.78, 0.91, 2.80, 2.32, 2.06, 8.98, repro,
2001-09-13,-0.15, 2.02, 6.43, 2.23, 1.99, 9.05, repro,
2001-09-14,0.68, 0.87, 13.97, 2.13, 1.89, 8.62, repro,
2001-09-15,-0.67, 0.33, 12.06, 2.16, 1.87, 8.64, repro,
2001-09-16,0.51, 0.84, 18.30, 2.23, 2.01, 8.99, repro,
2001-09-17,-1.43, 1.64, 14.50, 2.16, 1.95, 9.03, repro,
2001-09-18,-0.58, 0.67, 12.25, 2.16, 1.95, 8.92, repro,
2001-09-19,1.11, 2.28, 12.82, 2.14, 1.88, 8.64, repro,
2001-09-20,4.50, 2.31, 8.99, 2.36, 2.15, 9.50, repro,
2001-09-21,0.41, 2.51, 0.12, 2.21, 1.95, 8.98, repro,
2001-09-22,2.18, -0.96, 25.01, 2.15, 1.88, 8.77, repro,
2001-09-23,-0.44, 2.65, 6.16, 2.22, 1.96, 8.86, repro,
2001-09-24,4.93, -1.63, 30.02, 2.47, 2.13, 10.31, repro,
2001-09-25,0.07, -0.44, 29.40, 2.17, 1.91, 8.75, repro,
2001-09-26,1.21, 5.11, -2.69, 2.20, 1.97, 8.99, repro,
2001-09-27,1.53, 4.07, 16.86, 2.37, 2.14, 9.58, repro,
2001-09-28,5.77, 4.58, 6.70, 2.27, 2.04, 9.27, repro,
2001-09-29,-1.36, 2.78, 7.80, 2.31, 2.06, 9.16, repro,
2001-09-30,1.41, -1.36, 29.84, 2.23, 2.01, 8.97, repro,
2001-10-01,-0.59, -2.24, 22.69, 2.23, 2.07, 9.20, repro,
2001-10-02,0.63, -1.96, 44.33, 2.62, 2.51, 10.72, repro,
2001-10-03,0.94, -2.26, 25.91, 2.27, 2.00, 9.17, repro,
2001-10-04,1.98, -0.11, 22.27, 2.44, 2.06, 9.71, repro,
2001-10-05,3.72, -2.23, 31.75, 2.30, 1.94, 9.15, repro,
2001-10-06,-0.19, 1.73, 15.51, 2.28, 2.03, 9.19, repro,
2001-10-07,-0.28, 2.36, -2.75, 2.36, 2.05, 9.35, repro,
2001-10-08,-0.15, -5.33, 27.66, 2.20, 1.94, 8.91, repro,
2001-10-09,0.37, -1.58, 13.56, 2.20, 1.96, 9.04, repro,
2001-10-10,0.02, -2.56, 13.20, 2.17, 1.86, 8.58, repro,
2001-10-11,-0.89, -0.53, 17.01, 2.22, 1.99, 9.27, repro,
2001-10-12,-0.27, 0.76, -0.19, 2.38, 2.11, 9.84, repro,
2001-10-13,0.57, 5.71, 8.00, 2.30, 2.05, 9.38, repro,
2001-10-14,0.20, -0.16, 15.84, 2.20, 1.95, 8.83, repro,
2001-10-15,-0.36, -2.43, 28.48, 2.26, 1.92, 9.02, repro,
2001-10-16,1.48, -0.20, 10.06, 2.28, 2.06, 9.35, repro,
2001-10-17,-1.55, -1.85, 18.81, 2.32, 2.06, 9.40, repro,
2001-10-18,1.14, -0.09, 18.27, 2.26, 1.90, 8.98, repro,
2001-10-19,-1.34, -0.97, 20.18, 2.50, 2.16, 9.69, repro,
2001-10-20,2.26, -2.59, 19.87, 2.16, 1.85, 8.59, repro,
2001-10-21,3.25, -4.36, 32.09, 2.22, 1.96, 8.81, repro,
2001-10-22,-0.46, -1.16, 12.26, 2.24, 2.06, 9.32, repro,
2001-10-23,1.05, -3.93, 32.15, 2.26, 1.94, 9.04, repro,
2001-10-24,0.60, -3.19, 31.36, 2.41, 2.08, 9.50, repro,
2001-10-25,-0.86, -0.58, 23.41, 2.45, 2.20, 9.60, repro,
2001-10-26,4.25, -3.09, 20.99, 2.22, 2.00, 8.92, repro,
2001-10-27,0.28, -1.16, 14.67, 2.32, 1.95, 9.14, repro,
2001-10-28,-3.42, -4.44, 22.14, 2.35, 2.12, 9.36, repro,
2001-10-29,-0.77, -1.01, 15.85, 2.27, 2.01, 9.13, repro,
2001-10-30,-1.88, -0.93, 6.83, 2.19, 1.92, 8.70, repro,
2001-10-31,0.79, -3.80, 20.05, 2.26, 1.95, 8.95, repro,
2001-11-01,1.74, 1.78, 8.12, 2.39, 2.18, 9.57, repro,
2001-11-02,0.44, -1.05, 19.22, 2.26, 2.06, 8.94, repro,
2001-11-03,-0.19, 0.40, 7.40, 2.45, 2.27, 9.77, repro,
2001-11-04,-1.21, -0.58, 12.21, 2.29, 2.01, 9.36, repro,
2001-11-05,1.37, -2.11, 28.86, 2.43, 2.06, 9.45, repro,
2001-11-06,-0.56, -1.95, 14.24, 2.46, 2.23, 10.10, repro,
2001-11-07,0.18, -0.46, 12.90, 2.26, 2.00, 9.21, repro,
2001-11-08,0.45, -0.38, 2.86, 2.37, 2.01, 9.57, repro,
2001-11-09,3.21, 3.57, 6.28, 2.57, 2.23, 10.43, repro,
2001-11-10,1.46, -2.88, 15.98, 2.31, 2.05, 9.43, repro,
2001-11-11,4.80, -2.00, 10.52, 2.29, 2.02, 9.18, repro,
2001-11-12,3.09, -1.56, 20.42, 2.32, 2.03, 9.27, repro,
2001-11-13,6.53, -1.62, 34.19, 2.40, 2.02, 9.68, repro,
2001-11-14,9.96, 15.78, -19.73, 2.32, 2.05, 9.37, repro,
2001-11-15,1.95, 3.53, 12.22, 2.23, 1.94, 9.12, repro,
2001-11-16,4.13, 3.09, 1.58, 2.29, 2.08, 9.28, repro,
2001-11-17,3.99, -0.15, 18.34, 2.25, 1.95, 8.98, repro,
2001-11-18,2.66, -0.14, 16.90, 2.19, 1.99, 9.09, repro,
2001-11-19,6.23, -4.61, -3.23, 2.31, 2.00, 9.31, repro,
2001-11-20,3.70, 5.76, 11.73, 2.36, 2.11, 9.65, repro,
2001-11-21,2.38, 0.34, 7.43, 2.47, 2.34, 10.45, repro,
2001-11-22,3.20, 1.01, 19.01, 2.28, 2.06, 9.44, repro,
2001-11-23,2.43, 0.00, 13.44, 2.47, 2.31, 10.32, repro,
2001-11-24,2.43, 0.46, 23.22, 2.52, 2.26, 10.31, repro,
2001-11-25,2.92, -0.06, 21.81, 2.41, 2.01, 9.45, repro,
2001-11-26,9.89, 11.01, 5.55, 2.25, 1.93, 8.92, repro,
2001-11-27,-0.19, 0.14, -6.42, 2.48, 2.22, 10.62, repro,
2001-11-28,19.33, 10.57, -4.02, 2.95, 2.61, 12.33, repro,
2001-11-29,0.39, 1.68, 18.81, 2.30, 2.03, 9.62, repro,
2001-11-30,0.04, 1.91, 10.01, 2.31, 2.11, 9.66, repro,
2001-12-01,3.64, 1.36, 23.21, 2.79, 2.50, 11.82, repro,
2001-12-02,-0.65, 3.62, 8.32, 2.26, 2.00, 9.17, repro,
2001-12-03,0.11, 0.86, 17.90, 2.28, 2.02, 9.33, repro,
2001-12-04,-3.43, -7.51, 30.95, 2.74, 2.41, 11.51, repro,
2001-12-05,19.03, 16.26, -8.67, 2.21, 1.91, 8.61, repro,
2001-12-06,-1.66, 2.72, -6.94, 2.80, 2.48, 11.24, repro,
2001-12-07,-1.43, 4.73, 13.63, 2.34, 2.03, 9.31, repro,
2001-12-08,0.58, -0.09, 14.61, 2.27, 1.99, 9.30, repro,
2001-12-09,0.57, 1.60, 29.15, 2.26, 2.01, 9.39, repro,
2001-12-10,6.24, 0.51, 28.87, 2.36, 2.14, 9.95, repro,
2001-12-11,12.50, 4.10, 24.75, 2.34, 2.04, 9.42, repro,
2001-12-12,1.80, 2.05, 36.65, 2.43, 2.04, 9.81, repro,
2001-12-13,22.33, 16.63, -13.93, 2.55, 2.03, 9.63, repro,
2001-12-14,2.33, 2.37, 18.59, 2.22, 1.97, 9.10, repro,
2001-12-15,2.70, 0.11, 27.78, 2.30, 2.03, 9.48, repro,
2001-12-16,0.14, 1.40, 13.54, 2.32, 2.03, 9.39, repro,
2001-12-17,-0.84, 3.40, 3.68, 2.29, 1.95, 8.94, repro,
2001-12-18,3.34, 2.24, 8.35, 2.28, 1.99, 8.95, repro,
2001-12-19,1.37, 4.04, 11.36, 2.30, 1.96, 9.12, repro,
2001-12-20,-1.00, 1.44, 7.18, 2.25, 1.92, 8.95, repro,
2001-12-21,-1.92, 0.18, 12.99, 2.18, 1.89, 8.66, repro,
2001-12-22,-1.44, 0.11, -4.17, 2.23, 1.95, 8.82, repro,
2001-12-23,-0.29, 2.59, -10.43, 2.21, 2.04, 9.11, repro,
2001-12-24,0.04, 1.74, 2.98, 2.34, 2.02, 9.50, repro,
2001-12-25,5.60, 6.78, 1.96, 2.23, 1.90, 8.66, repro,
2001-12-26,2.11, 2.40, 14.18, 2.13, 1.84, 8.55, repro,
2001-12-27,-2.31, 2.43, 8.48, 2.21, 1.92, 8.87, repro,
2001-12-28,-4.68, 0.87, 12.58, 2.16, 1.88, 8.62, repro,
2001-12-29,-3.11, 1.15, 3.36, 2.19, 1.91, 8.76, repro,
2001-12-30,0.95, 3.61, 13.54, 2.13, 1.88, 8.62, repro,
2001-12-31,1.00, -1.83, 16.43, 2.27, 2.07, 9.54, repro,
2002-01-01,-2.69, 2.54, 13.17, 2.21, 1.94, 9.02, repro,
2002-01-02,0.80, 0.49, 7.66, 2.25, 1.94, 9.10, repro,
2002-01-03,-2.29, 2.07, 3.44, 2.30, 1.99, 9.12, repro,
2002-01-04,-3.50, -0.74, 13.40, 2.32, 2.03, 9.47, repro,
2002-01-05,-1.14, 1.35, 8.92, 2.29, 2.04, 9.33, repro,
2002-01-06,-1.53, 0.85, 18.39, 2.29, 2.03, 9.37, repro,
2002-01-07,-2.50, 0.56, 3.86, 2.32, 2.08, 9.51, repro,
2002-01-08,0.30, 2.29, -5.15, 2.42, 2.10, 9.85, repro,
2002-01-09,-0.21, 0.65, 3.73, 2.33, 2.12, 9.67, repro,
2002-01-10,-3.03, -1.54, -1.56, 2.27, 1.99, 9.01, repro,
2002-01-11,-0.48, -0.76, 5.45, 2.25, 1.99, 9.22, repro,
2002-01-12,-1.70, 1.96, -6.17, 2.32, 2.05, 9.57, repro,
2002-01-13,-1.05, 0.82, 14.53, 2.43, 2.05, 9.79, repro,
2002-01-14,-1.68, -0.50, 17.74, 2.22, 2.01, 9.13, repro,
2002-01-15,-1.44, 3.52, -3.40, 2.23, 2.04, 9.29, repro,
2002-01-16,-2.40, 0.87, 14.23, 2.31, 2.08, 9.48, repro,
2002-01-17,21.16, 17.47, -14.48, 2.28, 2.03, 8.94, repro,
2002-01-18,-1.72, 1.62, 9.67, 2.25, 2.06, 9.30, repro,
2002-01-19,-1.06, 0.80, -4.38, 2.48, 2.32, 10.40, repro,
2002-01-20,-1.59, 2.08, -2.01, 2.27, 2.07, 9.39, repro,
2002-01-21,-2.38, -2.13, 23.50, 2.17, 1.93, 8.75, repro,
2002-01-22,-3.97, 0.66, 16.83, 2.19, 1.94, 8.68, repro,
2002-01-23,-4.95, 0.06, 4.17, 2.21, 1.89, 8.61, repro,
2002-01-24,-4.84, -1.17, 8.81, 2.27, 2.07, 9.23, repro,
2002-01-25,-2.78, 2.94, -3.53, 2.35, 2.21, 9.96, repro,
2002-01-26,-1.81, 2.00, -0.63, 2.24, 1.97, 9.16, repro,
2002-01-27,0.56, -0.43, 8.11, 2.15, 1.91, 8.57, repro,
2002-01-29,-2.07, 0.15, 10.79, 2.21, 1.90, 8.76, repro,
2002-01-30,-1.48, -2.33, 12.85, 2.23, 1.95, 8.71, repro,
2002-01-31,0.30, 1.60, -3.15, 2.17, 1.95, 8.76, repro,
2002-02-01,-0.22, 2.20, -1.52, 2.24, 2.01, 8.81, repro,
2002-02-02,-0.97, 2.43, 4.21, 2.34, 2.15, 9.53, repro,
2002-02-03,-0.81, 1.86, -0.76, 2.28, 1.98, 9.19, repro,
2002-02-04,2.68, -3.23, 21.28, 2.34, 1.97, 9.18, repro,
2002-02-05,1.19, -1.79, 20.30, 2.25, 1.98, 8.90, repro,
2002-02-06,0.85, 3.46, 14.13, 2.19, 1.90, 8.79, repro,
2002-02-07,-0.07, 2.63, 13.36, 2.19, 1.90, 8.70, repro,
2002-02-08,2.31, -0.35, 9.87, 2.33, 2.02, 9.27, repro,
2002-02-09,4.05, -1.33, 20.73, 2.21, 1.93, 9.04, repro,
2002-02-10,0.56, 0.83, 5.36, 2.31, 2.04, 9.07, repro,
2002-02-11,1.97, 0.55, 9.38, 2.23, 1.90, 8.84, repro,
2002-02-12,14.94, 1.16, 29.39, 3.49, 3.12, 14.82, repro,
2002-02-17,-8.74, 119.26, -57.87, 5.69, 5.29, 24.96, repro,
2002-02-18,-1.98, 1.18, 23.25, 2.36, 2.17, 9.86, repro,
2002-02-19,-1.68, 3.15, 20.40, 2.31, 2.06, 9.50, repro,
2002-02-20,-1.85, 2.36, 26.00, 2.36, 2.12, 9.46, repro,
2002-02-21,0.84, 1.43, 9.48, 2.43, 2.17, 9.92, repro,
2002-02-22,0.15, 2.46, 11.25, 2.32, 2.07, 9.45, repro,
2002-02-23,-3.53, 1.19, 10.58, 2.21, 1.98, 9.19, repro,
2002-02-24,-1.69, -0.57, 13.86, 2.23, 1.96, 9.03, repro,
2002-02-25,-1.42, 2.38, 19.12, 2.18, 1.89, 8.82, repro,
2002-02-26,1.63, 1.57, 11.15, 2.35, 2.05, 9.31, repro,
2002-02-27,-1.15, 4.55, 7.49, 2.41, 2.08, 9.46, repro,
2002-02-28,2.37, 5.33, 26.07, 2.37, 2.18, 9.78, repro,
2002-03-01,-2.01, 3.10, 18.21, 2.26, 1.98, 9.10, repro,
2002-03-02,-2.54, 0.91, 13.76, 2.15, 1.94, 8.84, repro,
2002-03-03,-4.03, 1.72, 6.80, 2.22, 2.01, 8.94, repro,
2002-03-04,-2.33, 0.98, 11.66, 2.71, 2.43, 10.99, repro,
2002-03-07,-5.24, 2.51, 6.53, 3.13, 2.59, 11.95, repro,
2002-03-08,-0.52, 4.10, -1.99, 2.27, 1.97, 8.93, repro,
2002-03-09,-2.56, 0.90, -2.28, 2.56, 2.39, 10.28, repro,
2002-03-10,-1.34, 0.15, 13.84, 2.13, 1.91, 8.52, repro,
2002-03-11,-4.19, 0.69, 5.34, 2.26, 2.05, 9.19, repro,
2002-03-12,-3.94, 0.71, 11.88, 2.21, 1.99, 9.04, repro,
2002-03-13,-2.39, 1.97, 9.79, 2.20, 1.93, 8.90, repro,
2002-03-14,-1.70, 1.36, 18.03, 2.22, 1.89, 8.85, repro,
2002-03-15,-2.61, 1.22, 13.18, 2.21, 2.05, 9.13, repro,
2002-03-16,-1.79, -1.82, 8.75, 2.52, 2.25, 10.22, repro,
2002-03-17,3.55, 1.78, 4.85, 2.51, 2.30, 10.20, repro,
2002-03-18,-4.36, 0.78, 3.22, 2.31, 2.12, 9.40, repro,
2002-03-19,-1.39, 1.15, 2.08, 2.21, 1.97, 9.03, repro,
2002-03-20,0.23, 1.71, 9.51, 2.14, 1.92, 8.82, repro,
2002-03-21,-1.00, 1.20, 11.07, 2.21, 1.96, 9.09, repro,
2002-03-22,-0.47, 1.54, -7.39, 3.12, 2.82, 12.95, repro,
2002-03-29,-5.51, 1.18, -3.40, 3.05, 2.84, 12.85, repro,
2002-03-30,0.43, -1.43, 5.21, 2.26, 1.99, 9.27, repro,
2002-03-31,7.37, 0.58, 4.30, 2.26, 2.01, 9.37, repro,
2002-04-01,-0.14, 2.29, -4.32, 2.27, 2.04, 9.43, repro,
2002-04-02,1.73, -1.53, 12.87, 2.21, 1.87, 8.71, repro,
2002-04-03,0.89, -0.81, 8.89, 2.29, 1.97, 9.13, repro,
2002-04-04,0.65, -2.88, 18.17, 2.28, 2.00, 9.32, repro,
2002-04-05,-1.99, -3.27, 8.00, 2.36, 2.05, 9.46, repro,
2002-04-06,-0.88, -0.79, 7.22, 2.30, 2.01, 9.30, repro,
2002-04-07,-1.79, 0.61, 12.01, 2.23, 1.95, 9.27, repro,
2002-04-08,-0.03, 1.82, 6.54, 2.37, 2.08, 9.34, repro,
2002-04-09,-2.76, -0.78, 8.12, 2.42, 2.24, 9.89, repro,
2002-04-10,-0.62, 1.05, 10.54, 2.31, 2.02, 9.27, repro,
2002-04-11,1.03, -1.46, 4.62, 2.25, 1.94, 9.03, repro,
2002-04-12,0.45, -0.12, 7.46, 2.25, 2.02, 9.20, repro,
2002-04-13,0.60, -2.39, 18.05, 2.28, 1.99, 9.26, repro,
2002-04-14,-0.59, -1.85, 22.26, 2.19, 1.89, 8.84, repro,
2002-04-15,-2.28, 0.54, 15.94, 2.28, 1.95, 9.30, repro,
2002-04-16,-2.04, -0.05, 17.17, 2.23, 1.97, 9.37, repro,
2002-04-17,-2.26, 0.41, 20.34, 2.29, 2.05, 9.43, repro,
2002-04-18,-0.73, 0.76, 8.94, 2.30, 2.03, 9.50, repro,
2002-04-19,-1.62, 2.40, 2.84, 2.32, 1.99, 9.27, repro,
2002-04-20,-2.91, 4.15, -5.75, 2.32, 1.97, 9.26, repro,
2002-04-21,-0.80, 2.62, 6.79, 2.19, 1.89, 8.99, repro,
2002-04-22,-1.10, 4.59, 3.67, 2.28, 1.98, 9.47, repro,
2002-04-23,-2.15, 2.98, 9.36, 2.18, 1.92, 9.16, repro,
2002-04-24,-0.65, -1.31, 12.96, 2.21, 1.94, 9.13, repro,
2002-04-25,0.19, -1.56, 5.21, 2.23, 1.93, 8.99, repro,
2002-04-26,-2.98, 0.82, 6.30, 2.25, 1.91, 9.24, repro,
2002-04-27,-0.64, 1.12, 9.47, 2.19, 1.83, 8.59, repro,
2002-04-28,-1.15, 1.55, 17.96, 2.17, 1.82, 8.70, repro,
2002-04-29,-3.80, 2.62, 6.47, 2.22, 1.89, 8.97, repro,
2002-04-30,0.44, -2.23, 11.45, 2.32, 1.87, 9.16, repro,
2002-05-01,-1.36, 0.70, 8.36, 2.28, 1.91, 9.16, repro,
2002-05-02,1.55, 2.67, 1.16, 2.24, 1.89, 8.95, repro,
2002-05-03,-1.14, 1.46, -3.78, 2.25, 1.91, 8.97, repro,
2002-05-04,-3.20, 0.42, 4.49, 2.18, 1.87, 8.76, repro,
2002-05-05,-3.34, -0.35, 6.23, 2.21, 1.87, 8.92, repro,
2002-05-06,-1.01, -1.22, 22.04, 2.30, 1.95, 9.12, repro,
2002-05-07,-0.67, -0.46, 8.74, 2.27, 1.92, 8.94, repro,
2002-05-08,-2.15, 0.93, 14.74, 2.26, 1.87, 8.96, repro,
2002-05-09,-1.20, 0.80, 4.91, 2.24, 1.89, 9.02, repro,
2002-05-10,-0.90, -6.37, 6.83, 3.49, 3.01, 14.18, repro,
2002-05-11,-3.39, -0.24, 37.14, 2.88, 2.50, 11.66, repro,
2002-05-12,-2.08, -0.22, 9.33, 2.21, 1.93, 8.94, repro,
2002-05-13,-1.82, 1.57, -1.13, 2.39, 2.15, 10.00, repro,
2002-05-14,-0.44, 1.72, 10.86, 2.23, 1.91, 9.17, repro,
2002-05-15,-0.55, 4.29, -20.32, 3.69, 3.38, 15.38, repro,
2003-04-22,19.04, -22.18, 35.83, 5.02, 4.19, 20.37, repro,
2003-04-23,-0.67, -0.70, 3.71, 2.20, 1.91, 8.88, repro,
2003-04-24,-1.02, -6.40, 17.34, 2.19, 1.86, 8.70, repro,
2003-04-25,-0.80, -6.31, 15.07, 2.19, 1.83, 8.63, repro,
2003-04-26,0.81, -4.13, 11.79, 2.21, 1.93, 8.93, repro,
2003-04-27,0.30, -5.90, 12.23, 2.25, 1.98, 9.11, repro,
2003-04-28,0.66, -7.15, 21.07, 2.28, 1.97, 9.17, repro,
2003-04-29,-5.84, -4.02, 14.59, 2.69, 2.28, 10.54, repro,
2003-05-27,6.00, 7.19, -16.66, 8.55, 7.82, 35.58, repro,
2003-05-28,3.74, -2.00, 20.06, 7.32, 6.09, 26.32, repro,
2003-05-29,7.07, -5.53, 34.91, 7.88, 7.37, 34.44, repro,
2003-05-30,19.58, -8.84, 22.02, 7.20, 5.65, 25.82, repro,
2003-05-31,9.17, -8.45, 32.63, 6.48, 5.18, 24.72, repro,
2003-06-01,26.66, -17.22, 39.86, 7.39, 6.08, 28.41, repro,
2003-06-02,-2.25, -3.97, 21.79, 6.16, 5.57, 25.67, repro,
2003-06-03,14.25, -16.62, 56.77, 9.05, 6.61, 30.22, repro,
2003-06-04,12.57, -13.39, 51.01, 6.79, 6.11, 27.92, repro,
2003-06-05,14.47, -14.80, 38.80, 7.98, 5.65, 26.19, repro,
2003-06-06,18.91, -13.74, 38.95, 8.68, 6.31, 29.16, repro,
2003-06-07,21.59, -20.10, 45.28, 7.77, 5.63, 25.85, repro,
2003-06-08,3.87, -20.52, 76.20, 7.00, 5.75, 27.76, repro,
2003-06-09,5.38, -12.23, 54.72, 6.87, 6.29, 26.51, repro,
2003-06-10,12.75, -17.17, 23.16, 8.19, 5.92, 26.83, repro,
2003-06-11,2.97, -18.91, 55.53, 7.07, 6.66, 30.06, repro,
2003-06-12,15.92, -14.28, -13.99, 6.80, 5.86, 26.78, repro,
2003-06-13,-4.77, -4.60, 12.58, 7.38, 7.04, 30.23, repro,
2003-06-14,13.47, -9.79, 23.11, 7.69, 6.41, 28.68, repro,
2003-06-15,-4.71, 16.21, 15.99, 7.46, 7.25, 31.65, repro,
2003-06-16,6.94, -9.62, 39.00, 6.88, 7.12, 29.12, repro,
2003-06-17,-10.32, 1.86, -39.77, 7.05, 6.81, 28.99, repro,
2003-06-18,-1.20, 7.73, 9.53, 9.56, 8.03, 34.90, repro,
2003-06-19,8.44, -28.04, 50.58, 8.62, 7.62, 34.67, repro,
2003-06-20,-1.54, -2.18, 25.86, 7.48, 8.09, 33.75, repro,
2003-06-21,-4.00, -3.73, -6.03, 7.72, 8.33, 36.83, repro,
2003-06-22,0.47, -11.60, 37.95, 7.91, 6.84, 33.06, repro,
2003-06-23,-9.68, -22.44, 28.48, 7.25, 7.55, 35.24, repro,
2003-06-24,8.68, -11.06, 42.67, 8.14, 8.79, 40.39, repro,
2003-06-25,3.59, -15.00, 88.64, 7.65, 8.72, 40.09, repro,
2003-06-26,2.78, -3.38, 24.26, 7.17, 7.56, 34.68, repro,
2003-06-27,8.64, -5.13, 17.86, 8.12, 9.90, 45.08, repro,
2003-06-28,0.99, 1.25, -0.13, 7.26, 7.35, 32.91, repro,
2003-06-29,8.68, -9.74, 30.78, 7.66, 7.40, 34.20, repro,
2003-06-30,5.66, -41.96, 13.07, 7.87, 13.16, 35.36, repro,
2003-07-01,6.88, -11.32, 75.34, 7.78, 7.11, 33.57, repro,
2003-07-02,12.29, -4.67, 49.17, 8.65, 8.88, 39.81, repro,
2003-07-03,-6.20, -15.88, 76.82, 7.66, 7.22, 33.37, repro,
2003-07-04,10.08, -4.51, 8.41, 9.15, 8.02, 36.64, repro,
2003-07-05,-5.76, -6.40, -22.94, 7.64, 7.22, 32.44, repro,
2003-07-06,6.72, -7.51, 46.30, 7.76, 7.44, 33.25, repro,
2003-07-07,8.44, 1.98, 38.58, 8.03, 8.50, 36.96, repro,
2003-07-08,1.63, -8.14, 29.94, 8.54, 7.59, 32.61, repro,
2003-07-09,6.13, -6.88, 22.90, 8.99, 9.20, 42.24, repro,
2003-07-10,-9.82, -7.52, 44.61, 7.96, 6.82, 33.50, repro,
2003-07-11,3.58, 0.48, 11.55, 7.21, 6.62, 31.62, repro,
2003-07-12,-1.84, 13.69, -7.05, 7.53, 6.96, 30.62, repro,
2003-07-13,1.72, -0.59, 32.07, 7.41, 7.15, 32.35, repro,
2003-07-14,6.12, -12.48, 12.35, 8.78, 7.84, 34.10, repro,
2003-07-15,-2.28, -0.64, -11.80, 7.76, 6.69, 30.63, repro,
2003-07-16,-11.37, 6.39, 4.46, 7.61, 6.65, 32.55, repro,
2003-07-17,-2.05, 21.83, -35.07, 7.52, 6.61, 30.74, repro,
2003-07-18,3.36, -11.38, 56.30, 8.51, 8.41, 36.58, repro,
2003-07-19,-6.90, 1.31, 35.93, 7.84, 6.69, 31.63, repro,
2003-07-20,2.89, -49.24, -16.44, 7.94, 10.19, 34.30, repro,
2003-07-21,12.46, -14.66, -19.24, 9.02, 7.72, 31.75, repro,
2003-07-22,14.80, -6.38, 17.70, 7.94, 7.35, 29.36, repro,
2003-07-23,1.18, 4.00, 8.63, 7.76, 6.86, 31.53, repro,
2003-07-24,10.64, 9.34, -12.26, 7.70, 6.30, 30.19, repro,
2003-07-25,-1.60, 32.54, -90.75, 7.39, 13.02, 32.50, repro,
2003-07-26,-3.00, -4.76, 1.89, 7.46, 6.74, 32.29, repro,
2003-07-27,0.06, -0.77, -40.27, 6.87, 6.57, 30.19, repro,